Location: Grasslands National Park East Block
(49.0708°N, 106.5295°W)
Time: 03:18:31
(UTC-06:00)

Transit 4A - Visible Passes

Search period start: 24 September 2019 00:00
Search period end: 04 October 2019 00:00
Orbit: 865 x 979 km, 66.8° (Epoch: 24 September)

Date Brightness Start Highest point End Pass type
(mag) Time Alt. Az. Time Alt. Az. Time Alt. Az.
24 Sep 8.2 20:30:41 10° NW 20:36:42 64° WSW 20:42:17 11° SSE visible
24 Sep 10.4 22:20:03 10° W 22:21:49 11° W 22:23:34 10° WSW visible
25 Sep 8.8 20:40:10 10° NW 20:45:56 45° WSW 20:51:30 10° S visible
26 Sep 9.4 20:49:48 10° NW 20:55:04 32° WSW 21:00:11 10° S visible
27 Sep 10.0 20:59:38 10° WNW 21:04:07 22° WSW 21:08:32 10° SSW visible
28 Sep 8.1 19:21:40 10° NW 19:27:47 78° WSW 19:33:41 10° SSE visible
28 Sep 10.4 21:09:54 10° WNW 21:13:07 15° WSW 21:16:19 10° SW visible
29 Sep 8.6 19:31:07 10° NW 19:37:04 56° WSW 19:42:48 10° SSE visible
30 Sep 9.3 19:40:40 10° NW 19:46:14 40° WSW 19:51:39 10° S visible
01 Oct 9.9 19:50:21 10° NW 19:55:21 28° WSW 20:00:15 10° SSW visible
02 Oct 10.4 20:00:18 10° WNW 20:04:24 19° WSW 20:08:25 10° SSW visible
03 Oct 10.8 20:10:52 10° WNW 20:13:22 13° W 20:15:50 10° SW visible
